TimeCST,TemperatureF,Dew PointF,Humidity,Sea Level PressureIn,VisibilityMPH,Wind Direction,Wind SpeedMPH,Gust SpeedMPH,PrecipitationIn,Events,Conditions,WindDirDegrees,DateUTC
12:42 AM,37.4,32.0,81,30.22,10.0,ENE,5.8,-,N/A,,Overcast,70,2011-11-21 06:42:00
12:55 AM,37.0,32.0,82,30.25,10.0,ENE,5.8,-,N/A,,Overcast,60,2011-11-21 06:55:00
1:55 AM,37.0,33.1,86,30.25,10.0,ENE,6.9,-,N/A,,Overcast,60,2011-11-21 07:55:00
2:55 AM,37.0,34.0,89,30.25,10.0,NE,6.9,-,N/A,,Overcast,40,2011-11-21 08:55:00
3:55 AM,37.0,35.1,93,30.27,9.0,NNE,5.8,-,N/A,,Overcast,30,2011-11-21 09:55:00
4:55 AM,37.0,35.1,93,30.26,5.0,NE,6.9,-,N/A,,Overcast,50,2011-11-21 10:55:00
5:55 AM,37.9,35.1,89,30.27,8.0,NE,9.2,-,N/A,,Overcast,40,2011-11-21 11:55:00
6:21 AM,37.4,35.6,93,30.23,7.0,NE,6.9,-,N/A,,Overcast,50,2011-11-21 12:21:00
6:50 AM,37.4,35.6,93,30.23,7.0,NE,8.1,-,N/A,,Overcast,50,2011-11-21 12:50:00
6:55 AM,37.9,36.0,93,30.26,7.0,ENE,5.8,-,N/A,,Overcast,60,2011-11-21 12:55:00
7:55 AM,39.2,35.6,87,30.23,6.0,ENE,4.6,-,N/A,,Overcast,70,2011-11-21 13:55:00
8:55 AM,39.9,37.0,89,30.28,6.0,East,6.9,-,N/A,,Overcast,80,2011-11-21 14:55:00
9:55 AM,41.0,37.0,86,30.27,6.0,ENE,4.6,-,N/A,,Overcast,60,2011-11-21 15:55:00
10:55 AM,41.0,37.0,86,30.27,4.0,ENE,5.8,-,N/A,,Overcast,70,2011-11-21 16:55:00
11:55 AM,42.1,37.9,85,30.24,4.0,NE,4.6,-,N/A,,Overcast,50,2011-11-21 17:55:00
12:55 PM,43.0,37.9,82,30.20,4.0,North,-9999.0,-,N/A,,Haze,0,2011-11-21 18:55:00
1:55 PM,-9999,-9999,N/A,30.15,-9999.0,NE,4.6,-,N/A,,Unknown,50,2011-11-21 19:55:00
2:24 PM,-9999,-9999,N/A,30.15,4.0,NNE,3.5,-,N/A,,Haze,20,2011-11-21 20:24:00
2:55 PM,42.8,37.4,81,30.13,3.0,NE,8.1,-,N/A,,Overcast,50,2011-11-21 20:55:00
3:23 PM,42.8,37.4,81,30.13,4.0,NE,6.9,-,N/A,,Overcast,40,2011-11-21 21:23:00
3:41 PM,42.8,37.4,81,30.13,4.0,NE,5.8,-,N/A,,Overcast,50,2011-11-21 21:41:00
3:55 PM,42.1,37.9,85,30.17,4.0,ENE,5.8,-,N/A,,Overcast,60,2011-11-21 21:55:00
4:55 PM,42.1,37.0,82,30.17,5.0,East,3.5,-,N/A,,Haze,80,2011-11-21 22:55:00
5:55 PM,42.8,37.4,81,30.13,6.0,East,3.5,-,N/A,,Overcast,80,2011-11-21 23:55:00
6:55 PM,42.1,37.9,85,30.15,6.0,East,3.5,-,N/A,,Overcast,90,2011-11-22 00:55:00
7:55 PM,42.1,37.0,82,30.14,6.0,Calm,Calm,-,N/A,,Haze,0,2011-11-22 01:55:00
8:09 PM,42.8,37.4,81,30.11,6.0,East,3.5,-,N/A,,Haze,100,2011-11-22 02:09:00
8:52 PM,42.8,37.4,81,30.10,6.0,East,4.6,-,N/A,,Overcast,100,2011-11-22 02:52:00
8:55 PM,42.1,37.9,85,30.14,6.0,East,3.5,-,N/A,,Overcast,100,2011-11-22 02:55:00
9:55 PM,42.1,39.0,89,30.15,4.0,ESE,4.6,-,N/A,,Overcast,120,2011-11-22 03:55:00
10:55 PM,42.1,39.0,89,30.12,4.0,ENE,4.6,-,N/A,,Overcast,60,2011-11-22 04:55:00
11:55 PM,42.8,39.2,87,30.12,3.0,Calm,Calm,-,N/A,,Overcast,0,2011-11-22 05:55:00